Regional Weather Roundup
Issued by NWS Sioux Falls, SD

Home | Current Version | Previous Version | Graphics & Text | Print | Product List | Glossary On
Versions: 1 2 3 4 5 6 7 8 9 10 11 12 13 14 15 16 17 18 19 20 21 22 23 24 25 26 27 28 29 30 31 32 33 34 35 36 37 38 39 40 41 42 43 44 45 46 47 48 49 50
000
ASUS43 KFSD 200110
RWRFSD

WEATHER ROUNDUP FOR SE SOUTH DAKOTA/SW MINNESOTA/NW IOWA
NATIONAL WEATHER SERVICE SIOUX FALLS SD
800 PM CDT TUE AUG 19 2014

NOTE: "FAIR" INDICATES FEW OR NO CLOUDS BELOW 12,000 FEET WITH NO
SIGNIFICANT WEATHER AND OR OBSTRUCTIONS TO VISIBILITY.


SDZ038>040-050-052>070-200200-
SOUTHEAST SOUTH DAKOTA

CITY           SKY/WX    TMP DP  RH WIND       PRES   REMARKS
CHAMBERLAIN    PTCLDY    78  65  64 E6        29.76S
HURON          PTCLDY    79  63  57 E7        29.75S
MADISON        FAIR      73  70  88 E3        29.80S
MITCHELL       CLEAR     77  65  66 E6        29.76S
SIOUX FALLS    PTCLDY    77  64  64 CALM      29.79R
WINNER         FAIR      81  65  58 E13       29.75F
YANKTON        CLEAR     77  66  69 E5        29.78R
$$

MNZ071-072-080-081-089-090-097-098-200200-
SOUTHWEST MINNESOTA

CITY           SKY/WX    TMP DP  RH WIND       PRES   REMARKS
FAIRMONT       CLEAR     77  64  65 N3        29.78S
JACKSON        PTCLDY    75  64  69 CALM      29.80R
LUVERNE        CLEAR     75  68  78 SW3       29.80S
MARSHALL       CLEAR     77  64  65 NE5       29.77S
MONTEVIDEO     CLEAR     75  68  78 CALM      29.77S
PIPESTONE      CLEAR     75  66  73 CALM      29.81R
REDWOOD FALLS  CLEAR     78  66  66 N3        29.76S
TRACY          CLEAR     77  67  70 CALM      29.79R
WINDOM         CLEAR     75  66  73 CALM      29.79S
WORTHINGTON    CLEAR     77  18  10 SW5       29.82R
$$

IAZ001>003-012>014-020>022-031-032-NEZ013-014-SDZ071-200200-
NORTHWEST IOWA

CITY           SKY/WX    TMP DP  RH WIND       PRES   REMARKS
CHEROKEE       CLEAR     74  69  84 CALM      29.80R
DENISON        CLEAR     77  70  78 CALM      29.79S
ESTHERVILLE    CLEAR     74  67  78 W3        29.79R
LE MARS        CLEAR     77  66  69 CALM      29.80R
ORANGE CITY    CLEAR     81  63  54 CALM      29.80S
SHELDON        CLEAR     73  68  83 SW3       29.79S
SIOUX CITY     CLEAR     78  68  71 S3        29.79R
SPENCER        CLEAR     73  68  84 SW6       29.80R
STORM LAKE     CLEAR     73  72  94 SW3       29.82R
$$

ABBREVIATIONS USED IN REMARKS
   TC - TEMPERATURE IN CELSIUS
  WCI - WIND CHILL INDEX
   HX - HEAT INDEX
  VSB - VISIBILITY




USA.gov is the U.S. government's official web portal to all federal, state and local government web resources and services.